World > North America > United States > California

Pioneertown, California Regional Weather

Lat: 34.16N, Lon: 116.5W
Wx Zone: CAZ060
Feedback

Pioneertown, CA Regional Weather

Expires:202002260300;;097325
ASUS46 KLOX 260214
RWRCA 

SOUTHERN CALIFORNIA WEATHER ROUNDUP
NATIONAL WEATHER SERVICE OXNARD CALIFORNIA
600 PM PST TUE FEB 25 2020

NOTE: "FAIR" INDICATES FEW OR NO CLOUDS BELOW 12,000 FEET WITH NO 
SIGNIFICANT WEATHER AND/OR OBSTRUCTIONS TO VISIBILITY.

  -  STATIONS PRECEEDED BY AN ASTERISK (*) ARE NOT NWS OR FAA 
     STATIONS AND ARE NOT SUBJECT TO NWS AND FAA QUALITY CONTROL.


CAZ028-029-059-060-099-260300-
ANTELOPE VALLEY AND SURROUNDING AREAS

  
CITY           SKY/WX    TMP DP  RH WIND       PRES   REMARKS
LANCASTER      CLEAR     61  10  13 E9        30.29R                  
PALMDALE       CLEAR     59   9  13 NE10      30.29R                  
*POPPY PARK      N/A     57  14  18 NE9         N/A                   

CITY           SKY/WX    TMP DP  RH WIND       PRES   REMARKS
29 PALMS       CLEAR     60   8  12 SE10      30.37R                  
BARSTOW/DAGGET CLEAR     62   2   9 E7        30.30R                  
BISHOP         PTCLDY    57  12  17 N6        30.31R                  
CHINA LAKE     CLEAR     65   7  10 S9        30.29R                  
MOJAVE         CLEAR     64  16  15 E6        30.31R                  
NEEDLES        CLEAR     61  13  15 N18       30.33R                  
VICTORVILLE    CLEAR    N/A N/A N/A NE7       30.32R                  

$$


SKY/WX - Weather  TMP - Temperature  DP - Dew Point  RH - Relative Humidity
WIND - Wind Direction/Speed PRES - Barometric Pressure VSB - Visibility
WCI - Wind Chill Index E13G22 Wind - East Wind 13 mph/Gusts of 22 mph
Pioneertown Weather Map
What is UTC time?